Chicopee, MA

1:20 AM EST on February 27, 2017 (GMT -0500)
Westover Air Reserve Base / Metropolitan Airport

Weather History for KCEF - May, 2014

Change the Weather History Date:

Monday, May 19, 2014

  Actual Average Record
Temperature  
Mean Temperature 52 °F -  
Max Temperature 68 °F 65 °F 82 °F (1998)
Min Temperature 36 °F 46 °F 35 °F (2003)
Degree Days  
Heating Degree Days 13    
Growing Degree Days 2 (Base 50)    
Moisture  
Dew Point 35 °F    
Average Humidity 47    
Maximum Humidity 99    
Minimum Humidity 26    
Precipitation  
Precipitation 0.00 in - - ()
Sea Level Pressure  
Sea Level Pressure 30.08 in    
Wind  
Wind Speed 7 mph (NNE)    
Max Wind Speed 17 mph    
Max Gust Speed 24 mph    
Visibility 10 miles    
Events      
Averages and records for this station are not official NWS values.
T = Trace of Precipitation, MM = Missing Value Source: NWS Daily Summary

Daily Weather History Graph

Daily Weather History Graph

Search for Another Location

Airport or City:

Trip Planner

Search our weather history database for the weather conditions in past years. The results will help you decide how hot, cold, wet, or windy it might be!

Date:

Astronomy

May. 19, 2014 Rise Set
Actual Time 5:25 AM EDT 8:08 PM EDT
Civil Twilight 4:52 AM EDT 8:41 PM EDT
Nautical Twilight 4:12 AM EDT 9:22 PM EDT
Astronomical Twilight 3:25 AM EDT 10:08 PM EDT
Moon No Moon Rise 10:21 AM EDT (5/19)
Length of Visible Light 15h 48m
Length of Day
14h 43m
Waning Gibbous, 71% of the Moon is Illuminated
May 19
Waning Gibbous
May 21
Last Quarter
May 28
New
Jun 5
First Quarter
Jun 13
Full

Hourly Weather History & Observations

Time (EDT) Temp. Windchill Dew Point Humidity Pressure Visibility Wind Dir Wind Speed Gust Speed Precip Events Conditions
12:58 AM 50.5 °F - 35.2 °F 56% 30.12 in 10.0 mi North 4.6 mph - N/A   Clear
1:58 AM 48.9 °F - 35.8 °F 61% 30.12 in 10.0 mi NNW 5.8 mph - N/A   Clear
2:58 AM 44.4 °F - 38.8 °F 81% 30.13 in 10.0 mi NNE 2.3 mph - N/A   Clear
3:58 AM 38.3 °F 35.9 °F 37.9 °F 99% 30.14 in 10.0 mi NNE 3.5 mph - N/A   Clear
4:58 AM 39.7 °F - 39.2 °F 98% 30.15 in 10.0 mi Calm Calm - N/A   Clear
5:58 AM 36.7 °F - 36.5 °F 99% 30.16 in 10.0 mi Calm Calm - N/A   Clear
6:58 AM 45.5 °F - 45.1 °F 99% 30.17 in 10.0 mi Calm Calm - N/A   Clear
7:58 AM 53.8 °F - 37.2 °F 54% 30.16 in 10.0 mi NW 8.1 mph - N/A   Clear
10:58 AM 60.3 °F - 30.6 °F 33% 30.12 in 10.0 mi NNE 17.3 mph - N/A   Scattered Clouds
11:58 AM 63.3 °F - 29.5 °F 28% 30.10 in 10.0 mi North 12.7 mph 17.3 mph N/A   Mostly Cloudy
12:49 PM 66.2 °F - 32.0 °F 28% 30.06 in 10.0 mi North 16.1 mph 20.7 mph N/A   Scattered Clouds
12:58 PM 67.1 °F - 32.2 °F 27% 30.08 in 10.0 mi North 15.0 mph - N/A   Scattered Clouds
1:42 PM 66.2 °F - 32.0 °F 28% 30.05 in 10.0 mi North 12.7 mph 20.7 mph N/A   Mostly Cloudy
1:58 PM 64.0 °F - 29.8 °F 28% 30.07 in 10.0 mi NNE 12.7 mph - N/A   Overcast
2:25 PM 64.4 °F - 32.0 °F 30% 30.05 in 10.0 mi NNW 13.8 mph 24.2 mph N/A   Overcast
2:41 PM 66.2 °F - 32.0 °F 28% 30.04 in 10.0 mi NNE 11.5 mph - N/A   Mostly Cloudy
2:58 PM 66.2 °F - 30.9 °F 27% 30.06 in 10.0 mi NNW 15.0 mph - N/A   Mostly Cloudy
3:58 PM 67.1 °F - 31.8 °F 27% 30.05 in 10.0 mi North 13.8 mph - N/A   Mostly Cloudy
4:13 PM 66.2 °F - 32.0 °F 28% 30.04 in 10.0 mi NNW 15.0 mph 21.9 mph N/A   Mostly Cloudy
4:58 PM 68.4 °F - 32.4 °F 26% 30.05 in 10.0 mi North 11.5 mph - N/A   Mostly Cloudy
5:58 PM 66.0 °F - 31.5 °F 28% 30.04 in 10.0 mi NE 9.2 mph - N/A   Scattered Clouds
6:31 PM 66.2 °F - 32.0 °F 28% 30.02 in 10.0 mi NE 6.9 mph - N/A   Light Drizzle
6:32 PM 66.2 °F - 32.0 °F 28% 30.02 in 10.0 mi NE 5.8 mph - N/A   Partly Cloudy
6:47 PM 64.4 °F - 32.0 °F 30% 30.02 in 10.0 mi NE 5.8 mph - N/A   Clear
6:58 PM 63.7 °F - 32.7 °F 31% 30.04 in 10.0 mi NE 4.6 mph - 0.00 in   Scattered Clouds
7:58 PM 63.0 °F - 35.6 °F 36% 30.05 in 10.0 mi Calm Calm - N/A   Scattered Clouds
8:58 PM 57.6 °F - 39.7 °F 51% 30.07 in 10.0 mi East 4.6 mph - N/A   Scattered Clouds
9:01 PM 57.2 °F - 39.2 °F 51% 30.05 in 10.0 mi East 3.5 mph - N/A   Light Drizzle
9:11 PM 57.2 °F - 37.4 °F 48% 30.06 in 10.0 mi Variable 1.2 mph - N/A   Scattered Clouds
9:58 PM 57.7 °F - 38.8 °F 49% 30.08 in 10.0 mi Calm Calm - 0.00 in   Mostly Cloudy
10:58 PM 56.8 °F - 41.4 °F 56% 30.07 in 10.0 mi SW 2.3 mph - N/A   Overcast
11:58 PM 52.3 °F - 46.2 °F 80% 30.06 in 10.0 mi WSW 1.2 mph - N/A   Scattered Clouds